Weather in Torres Vedras

Portugal     39°05′40″N   9°15′54″W
temp.,
°C
wind,
m/s
gust,
m/s
humid.,
%
clouds,
%
prec.,
mm/h
press.,
hPa
HPBL,
m
14 may, fri
fri1401:00+12nnw379722 0.1 1021213
04:00+12nnw259712 0.0 1020106
07:00+11nnw379671 0.0 1020166
10:00+17nnw45675 0.0 1021682
13:00+19nw565818 0.0 1021846
16:00+19nw566228 0.0 1020651
19:00+16nw577796 0.0 1020439
22:00+13nw2296100 0.0 102143
15 may, sat
sat1501:00+13nw2296100 0.0 102026
04:00+13nw229713 0.0 101920
07:00+13wnw119461 0.0 101915
10:00+19wnw3473100 0.0 1019533
13:00+21wnw56666 0.0 1019682
16:00+21wnw576930 0.0 1019613
19:00+18nw578194 0.0 1018432
22:00+15nw369990 0.0 1019161
16 may, sun
sun1601:00+14nnw1199100 0.0 101920
04:00+13nw1197100 0.0 101820
07:00+14nw239885 0.0 1018108
10:00+19nw4675100 0.0 1019524
13:00+20nw677198 0.0 1019699
16:00+21nw6870100 0.0 1018819
19:00+18nw5885100 0.0 1018621
22:00+15n499681 0.1 1020408
17 may, mon
mon1701:00+14n5119455 0.1 1020446
04:00+12n410896 0.0 1020382
07:00+13n498583 0.0 1021472
10:00+17n6959100 0.0 1022705
13:00+20n574025 0.0 1022807
16:00+20nnw7840100 0.0 1022776
19:00+17nnw695530 0.0 1022538
22:00+12n4117754 0.0 1024342
18 may, tue
tue1801:00+11nnw35800 0.0 1023105
04:00+11nnw248262 0.0 102395
07:00+12n2280100 0.0 102346
10:00+19nnw455043 0.0 1024502
13:00+22nnw444960 0.0 1023865
16:00+21nw675550 0.0 1023687
19:00+19nnw586957 0.0 1023550
22:00+14nnw249454 0.0 102477